{"data":{"norad_id":60343,"epoch":"2026-05-25T02:21:47.063232Z","epoch_age_seconds":73438,"freshness":"FRESH","line1":"1 60343U 24136Q   26145.09846138  .00000640  00000+0  33729-4 0  9996","line2":"2 60343  53.1606  80.6778 0001371  78.3233 281.7922 15.30195616101362","mean_motion":15.30195616,"eccentricity":0.0001371,"inclination_deg":53.1606,"raan_deg":80.6778,"arg_perigee_deg":78.3233,"mean_anomaly_deg":281.7922,"bstar":3.3729e-5,"rev_number":10136,"period_min":94.105615317617,"perigee_km":474.28856292102,"apogee_km":476.16775564769,"semimajor_km":6853.3651592844,"source":"CELESTRAK","updated_at":"2026-05-25T13:38:19.235446Z"}}